AL7BX-WX Weather Reports


Display with metric or nautical units.
time (UTC)temp
F
wind
direction
speed
MPH
gust
MPH
rain 1hr
in
rain 24hr
in
rain mn
in
humidity
%
barometer
mb
20260509211803 77 13 5.0 13.0 0.00 0.00 0.00 23
20260509210903 78 322 6.0 12.0 0.00 0.00 0.00 26
20260509210212 77 323 6.0 12.0 0.00 0.00 0.00 26
20260509205614 77 334 6.0 14.0 0.00 0.00 0.00 23
20260509204713 77 357 5.0 13.0 0.00 0.00 0.00 26
20260509203603 78 348 7.0 16.0 0.00 0.00 0.00 24
20260509202703 77 354 9.0 14.0 0.00 0.00 0.00 23
20260509201803 78 352 8.0 14.0 0.00 0.00 0.00 26
20260509201113 77 10 4.0 9.0 0.00 0.00 0.00 26
20260509200214 76 2 5.0 11.0 0.00 0.00 0.00 25
20260509195403 76 360 4.0 9.0 0.00 0.00 0.00 28
20260509194503 76 360 6.0 15.0 0.00 0.00 0.00 28
20260509193603 76 360 6.0 14.0 0.00 0.00 0.00 27
20260509192703 76 360 6.0 11.0 0.00 0.00 0.00 29
20260509192013 76 360 6.0 11.0 0.00 0.00 0.00 26
20260509190903 75 360 7.0 12.0 0.00 0.00 0.00 28
20260509190214 76 360 9.0 14.0 0.00 0.00 0.00 29
20260509185613 76 360 9.0 14.0 0.00 0.00 0.00 28
20260509184503 75 360 8.0 14.0 0.00 0.00 0.00 27
20260509183814 75 360 8.0 16.0 0.00 0.00 0.00 28
20260509182703 74 360 6.0 12.0 0.00 0.00 0.00 28
20260509181803 74 360 8.0 18.0 0.00 0.00 0.00 29
20260509180903 73 360 7.0 14.0 0.00 0.00 0.00 30
20260509180213 72 360 6.0 14.0 0.00 0.00 0.00 30
20260509175403 72 360 6.0 11.0 0.00 0.00 0.00 29
20260509174503 72 360 7.0 14.0 0.00 0.00 0.00 29
20260509173603 72 360 4.0 10.0 0.00 0.00 0.00 32
20260509172913 71 360 3.0 9.0 0.00 0.00 0.00 29
20260509171803 70 360 6.0 18.0 0.00 0.00 0.00 31
20260509170903 70 360 7.0 13.0 0.00 0.00 0.00 30
20260509170003 70 360 5.0 13.0 0.00 0.00 0.00 32
20260509165403 70 360 5.0 12.0 0.00 0.00 0.00 31
20260509164503 70 360 6.0 12.0 0.00 0.00 0.00 32
20260509163603 69 360 5.0 11.0 0.00 0.00 0.00 34
20260509162703 68 360 5.0 9.0 0.00 0.00 0.00 31
20260509161803 68 357 3.0 9.0 0.00 0.00 0.00 30
20260509160903 68 360 1.0 7.0 0.00 0.00 0.00 30
20260509160003 67 360 1.0 4.0 0.00 0.00 0.00 29
20260509155612 66 360 1.0 4.0 0.00 0.00 0.00 31
20260509154503 65 360 1.0 3.0 0.00 0.00 0.00 31
20260509153604 64 360 2.0 4.0 0.00 0.00 0.00 31
20260509152703 63 360 1.0 5.0 0.00 0.00 0.00 31
20260509151803 63 360 1.0 4.0 0.00 0.00 0.00 31
20260509150903 61 360 0.0 2.0 0.00 0.00 0.00 34
20260509150004 60 360 0.0 1.0 0.00 0.00 0.00 36
20260509145403 59 360 0.0 3.0 0.00 0.00 0.00 39
20260509144713 58 360 2.0 4.0 0.00 0.00 0.00 41
20260509143603 56 360 4.0 7.0 0.00 0.00 0.00 43
20260509142914 56 360 3.0 6.0 0.00 0.00 0.00 46
20260509141803 54 360 1.0 3.0 0.00 0.00 0.00 44
20260509141112 52 360 2.0 3.0 0.00 0.00 0.00 44
20260509140004 49 360 2.0 5.0 0.00 0.00 0.00 48
20260509135403 48 360 0.0 3.0 0.00 0.00 0.00 48
20260509134713 46 0 0.0 0.0 0.00 0.00 0.00 48
20260509133814 45 0 0.0 0.0 0.00 0.00 0.00 51
20260509132703 44 0 0.0 0.0 0.00 0.00 0.00 53
20260509131803 43 0 0.0 0.0 0.00 0.00 0.00 56
20260509130903 42 0 0.0 0.0 0.00 0.00 0.00 55
20260509130214 43 317 0.0 1.0 0.00 0.00 0.00 55
20260509125403 44 327 1.0 4.0 0.00 0.00 0.00 54
20260509124503 44 50 1.0 4.0 0.00 0.00 0.00 51
20260509123603 44 80 1.0 3.0 0.00 0.00 0.00 49
20260509122703 44 79 2.0 4.0 0.00 0.00 0.00 51
20260509121803 44 33 2.0 4.0 0.00 0.00 0.00 49
20260509120903 45 339 2.0 5.0 0.00 0.00 0.00 48
20260509120003 45 360 3.0 5.0 0.00 0.00 0.00 49
20260509115403 45 52 1.0 4.0 0.00 0.00 0.00 49
20260509114503 47 88 0.0 2.0 0.00 0.00 0.00 47
20260509113603 48 0 0.0 0.0 0.00 0.00 0.00 44
20260509112703 50 87 1.0 4.0 0.00 0.00 0.00 42
20260509111803 49 87 1.0 2.0 0.00 0.00 0.00 39
20260509110903 49 87 1.0 3.0 0.00 0.00 0.00 41
20260509110003 50 83 2.0 4.0 0.00 0.00 0.00 39
20260509105403 48 61 2.0 4.0 0.00 0.00 0.00 42
20260509104503 47 24 1.0 3.0 0.00 0.00 0.00 46
20260509103813 47 23 1.0 3.0 0.00 0.00 0.00 46
20260509102912 49 23 1.0 3.0 0.00 0.00 0.00 45
20260509101803 50 26 0.0 2.0 0.00 0.00 0.00 42
20260509100903 50 0 0.0 0.0 0.00 0.00 0.00 41
20260509100004 50 26 1.0 3.0 0.00 0.00 0.00 40
20260509095403 50 26 1.0 3.0 0.00 0.00 0.00 42
20260509094713 49 5 1.0 4.0 0.00 0.00 0.00 43
20260509093603 48 324 1.0 3.0 0.00 0.00 0.00 45
20260509092703 48 295 1.0 3.0 0.00 0.00 0.00 45
20260509091803 47 295 0.0 2.0 0.00 0.00 0.00 51
20260509090903 48 295 1.0 4.0 0.00 0.00 0.00 46
20260509090003 50 302 1.0 5.0 0.00 0.00 0.00 46
20260509085403 51 309 0.0 2.0 0.00 0.00 0.00 42
20260509084503 51 309 1.0 3.0 0.00 0.00 0.00 39
20260509083603 52 308 1.0 3.0 0.00 0.00 0.00 38
20260509082703 53 307 1.0 3.0 0.00 0.00 0.00 37
20260509081803 55 305 0.0 2.0 0.00 0.00 0.00 36
20260509080903 59 302 2.0 5.0 0.00 0.00 0.00 32
20260509080003 62 111 2.0 5.0 0.00 0.00 0.00 25
20260509075403 62 122 3.0 9.0 0.00 0.00 0.00 25
20260509074503 62 130 3.0 9.0 0.00 0.00 0.00 24
20260509073604 62 137 2.0 6.0 0.00 0.00 0.00 25
20260509072703 61 141 2.0 5.0 0.00 0.00 0.00 25
20260509071803 60 143 1.0 4.0 0.00 0.00 0.00 26
20260509070903 60 144 1.0 4.0 0.00 0.00 0.00 26
20260509070004 60 145 1.0 4.0 0.00 0.00 0.00 27
20260509065613 60 146 1.0 3.0 0.00 0.00 0.00 27
20260509064714 61 146 1.0 3.0 0.00 0.00 0.00 26
20260509063603 60 148 1.0 5.0 0.00 0.00 0.00 26
20260509062703 61 155 2.0 5.0 0.00 0.00 0.00 27
20260509061803 61 147 1.0 4.0 0.00 0.00 0.00 25
20260509060903 62 149 1.0 4.0 0.00 0.00 0.00 25
20260509060006 62 152 1.0 3.0 0.00 0.00 0.00 26
20260509055403 62 152 1.0 3.0 0.00 0.00 0.00 25
20260509054503 62 153 2.0 3.0 0.00 0.00 0.00 24
20260509053603 62 184 2.0 4.0 0.00 0.00 0.00 25
20260509052703 62 192 1.0 3.0 0.00 0.00 0.00 25
20260509051803 63 192 1.0 4.0 0.00 0.00 0.00 24
20260509050904 64 192 1.0 4.0 0.00 0.00 0.00 23
20260509050003 64 192 1.0 3.0 0.00 0.00 0.00 22
20260509045403 64 192 1.0 3.0 0.00 0.00 0.00 23
20260509044503 63 192 1.0 3.0 0.00 0.00 0.00 23
20260509043603 63 193 1.0 2.0 0.00 0.00 0.00 24
20260509042914 63 193 1.0 3.0 0.00 0.00 0.00 24
20260509041803 63 193 2.0 4.0 0.00 0.00 0.00 25
20260509040903 63 194 2.0 5.0 0.00 0.00 0.00 25
20260509040003 63 197 1.0 3.0 0.00 0.00 0.00 25
20260509035403 64 196 2.0 6.0 0.00 0.00 0.00 25
20260509034503 65 229 3.0 5.0 0.00 0.00 0.00 23
20260509033814 66 341 2.0 4.0 0.00 0.00 0.00 22
20260509032703 68 360 2.0 5.0 0.00 0.00 0.00 21
20260509031803 70 360 2.0 7.0 0.00 0.00 0.00 20
20260509030903 70 360 3.0 6.0 0.00 0.00 0.00 19
20260509030003 71 360 2.0 7.0 0.00 0.00 0.00 19
20260509025403 71 360 2.0 5.0 0.00 0.00 0.00 19
20260509024503 72 360 2.0 9.0 0.00 0.00 0.00 18
20260509023603 73 360 3.0 7.0 0.00 0.00 0.00 18
20260509022703 73 360 5.0 9.0 0.00 0.00 0.00 18
20260509022013 74 360 5.0 9.0 0.00 0.00 0.00 19
20260509020903 75 360 5.0 10.0 0.00 0.00 0.00 19
20260509020003 76 360 5.0 9.0 0.00 0.00 0.00 20
20260509015403 77 360 6.0 10.0 0.00 0.00 0.00 20
20260509014503 78 360 5.0 11.0 0.00 0.00 0.00 19
20260509013603 79 357 5.0 11.0 0.00 0.00 0.00 19
20260509012703 80 358 5.0 13.0 0.00 0.00 0.00 17
20260509012014 80 358 5.0 10.0 0.00 0.00 0.00 18
20260509010903 80 359 7.0 14.0 0.00 0.00 0.00 20
20260509010003 82 359 5.0 11.0 0.00 0.00 0.00 20
20260509005403 82 359 5.0 9.0 0.00 0.00 0.00 22
20260509004504 82 359 4.0 7.0 0.00 0.00 0.00 21
20260509003813 82 358 5.0 7.0 0.00 0.00 0.00 19
20260509002703 82 338 10.0 14.0 0.00 0.00 0.00 20
20260509001803 83 347 8.0 17.0 0.00 0.00 0.00 22
20260509001113 84 356 4.0 15.0 0.00 0.00 0.00 17
20260509000003 85 352 4.0 9.0 0.00 0.00 0.00 18
20260508235403 84 316 2.0 6.0 0.00 0.00 0.00 18
20260508234503 83 290 4.0 7.0 0.00 0.00 0.00 18
20260508233603 82 296 2.0 6.0 0.00 0.00 0.00 22
20260508232703 82 138 2.0 6.0 0.00 0.00 0.00 18
20260508231803 82 100 3.0 6.0 0.00 0.00 0.00 18
20260508231113 82 80 2.0 6.0 0.00 0.00 0.00 18
20260508230003 82 78 3.0 7.0 0.00 0.00 0.00 20
20260508225403 82 89 5.0 10.0 0.00 0.00 0.00 19
20260508224503 82 111 3.0 6.0 0.00 0.00 0.00 20
20260508223603 81 26 4.0 11.0 0.00 0.00 0.00 21
20260508222703 82 24 4.0 9.0 0.00 0.00 0.00 20
20260508221805 82 162 4.0 9.0 0.00 0.00 0.00 21
20260508220903 81 174 4.0 7.0 0.00 0.00 0.00 19
20260508220003 81 160 4.0 7.0 0.00 0.00 0.00 19
20260508215613 81 133 3.0 6.0 0.00 0.00 0.00 20
20260508214503 81 131 2.0 7.0 0.00 0.00 0.00 20
20260508213603 81 81 3.0 9.0 0.00 0.00 0.00 23
20260508212703 81 332 2.0 4.0 0.00 0.00 0.00 24